CAPE
0 0 0 0 0 0 0 0 0 0 0 0 0 0 0 0 0 0 0 0 0 0 0 0 0 0 0 0 0 0 0 0 0 0 0 0 0 0 0 0 0 0 0 0
0 0 0 0 0 0 0 0 0 0 0 0 0 0 0 0 0 0 0 0 0 0 0 0 0 0 0 0 0 0 0 0 0 0 0 0 0 0 0 0 0 0 0 0
0 0 0 0 0 0 0 0 0 0 0 0 0 0 0 0 0 0 0 0 0 0 0 0 0 0 0 0 0 0 0 0 0 0 0 0 0 0 0 0 0 0 0 0
0 0 0 0 0 0 0 0 0 0 0 0 0 0 0 0 0 0 0 0 0 0 0 0 0 0 0 0 0 0 0 0 0 0 0 0 0 0 0 0 0 0 0 0
0 0 0 0 0 0 0 0 0 0 0 0 0 0 0 0 0 0 0 0 0 0 0 0 0 0 0 0 0 0 0 0 0 0 0 0 0 0 0 0 0 0 0 0
0 0 0 0 0 0 0 0 0 0 0 0 0 0 0 0 0 0 0 0 0 0 0 0 0 0 0 0 0 0 0 0 0 0 0 0 0 0 0 0 0 0 0 0
0 0 0 0 0 0 0 0 0 0 0 0 0 0 0 0 0 0 0 0 0 0 0 0 0 0 0 0 0 0 0 0 0 0 0 0 0 0 0 0 0 0 0 0
0 0 0 0 0 0 0 0 0 0 0 0 0 0 0 0 0 0 0 0 0 0 0 0 0 0 0 0 0 0 0 0 0 0 0 0 0 0 0 0 0 0 0 1
0 0 0 0 0 0 0 0 0 0 0 0 0 0 0 0 0 0 0 0 0 0 0 0 0 0 0 0 0 0 0 0 0 0 0 0 0 0 0 0 0 0 0 0
0 0 0 0 0 0 0 0 0 0 0 0 0 0 0 0 0 0 0 0 0 0 0 0 0 0 0 0 0 0 0 0 0 0 0 0 0 0 0 0 0 0 0 0
0 0 0 0 0 0 0 0 0 0 0 0 0 0 0 0 0 0 0 0 0 0 0 0 0 0 0 0 0 0 0 0 0 0 0 0 0 0 0 0 0 0 0 0
0 0 0 0 0 0 0 0 0 0 0 0 0 0 0 0 0 0 0 0 0 0 0 0 0 0 0 0 0 0 0 0 0 0 0 0 0 0 0 0 0 0 0 0
0 0 0 0 0 0 0 0 0 0 0 0 0 0 0 0 0 0 0 0 0 0 0 0 0 0 0 0 0 0 0 0 0 0 0 0 0 0 0 0 0 0 0 0
0 0 0 0 0 0 0 0 0 0 0 0 0 0 0 0 0 0 0 0 0 0 0 0 0 0 0 0 0 0 0 0 0 0 0 0 0 0 0 0 0 0 0 0
0 0 0 0 0 0 0 0 0 0 0 0 0 0 0 0 0 0 0 0 0 0 0 0 0 0 0 0 0 0 0 0 0 0 0 0 0 0 0 0 0 0 0 0
0 0 0 0 0 0 0 0 0 0 0 0 0 0 0 0 0 0 0 0 0 0 0 0 0 0 0 0 0 0 0 0 0 0 0 0 0 0 0 0 0 0 0 0
0 0 0 0 0 0 0 0 0 0 0 0 0 0 0 0 0 0 0 0 0 0 0 0 0 0 0 0 0 0 0 0 0 0 0 0 0 0 0 0 0 0 0 0
0 0 0 0 0 0 0 0 0 0 0 0 0 0 0 0 0 0 0 0 0 0 0 0 0 0 0 0 0 0 0 0 0 0 0 0 0 0 0 0 0 0 0 0
0 0 0 0 0 0 0 0 0 0 0 0 0 0 0 0 0 0 0 0 0 0 0 0 0 0 0 0 0 0 0 0 0 0 0 0 0 0 0 0 0 0 0 0
0 0 0 0 0 0 0 0 0 0 0 0 0 0 0 0 0 0 0 0 0 0 0 0 0 0 0 0 0 0 0 0 0 0 0 0 0 0 0 0 0 0 0 0
0 0 0 0 0 0 0 0 0 0 0 0 0 0 0 0 0 0 0 0 0 0 0 0 0 0 0 0 0 0 0 0 0 0 0 0 0 0 0 0 0 0 0 0
0 0 0 0 0 0 0 0 0 0 0 0 0 0 0 0 0 0 0 0 0 0 0 0 0 0 0 0 0 0 0 0 0 0 0 0 0 0 0 0 0 0 0 0
0 0 0 0 0 0 0 0 0 0 0 0 0 0 0 0 0 0 0 0 0 0 0 0 0 0 0 0 0 0 0 0 0 0 0 0 0 0 0 0 0 0 0 0
0 0 0 0 0 0 0 0 0 0 0 0 0 0 0 0 0 0 0 0 0 0 0 0 0 0 0 0 0 0 0 0 0 0 0 0 0 0 0 0 0 0 0 0
0 0 0 0 0 0 0 0 0 0 0 0 0 0 0 0 0 0 0 0 0 0 0 0 0 0 0 0 0 0 0 0 0 0 0 0 0 0 0 0 0 0 0 0
0 0 0 0 0 0 0 0 0 0 0 0 0 0 0 0 0 0 0 0 0 0 0 0 0 0 0 0 0 0 0 0 0 0 0 0 0 0 0 0 0 0 0 0
CIN
-0 -0 -0 -0 -0 -0 -0 -0 -0 -0 -0 -0 -0 -0 -0 -0 -0 -0 -0 -0 -0 -0 -0 -0 -0 -0 -0 -0 -0 -0 -0 -0 -0 -0 -0 -0 -0 -0 -0 -0 -0 -0 -0 -0
-0 -0 -0 -0 -0 -0 -0 -0 -0 -0 -0 -0 -0 -0 -0 -0 -0 -0 -0 -0 -0 -0 -0 -0 -0 -0 -0 -0 -0 -0 -0 -0 -0 -0 -0 -0 -0 -0 -0 -0 -0 -0 -0 -0
-0 -0 -0 -0 -0 -0 -0 -0 -0 -0 -0 -0 -0 -0 -0 -0 -0 -0 -0 -0 -0 -0 -0 -0 -0 -0 -0 -0 -0 -0 -0 -0 -0 -0 -0 -0 -0 -0 -0 -0 -0 -0 -0 -0
-0 -0 -0 -0 -0 -0 -0 -0 -0 -0 -0 -0 -0 -0 -0 -0 -0 -0 -0 -0 -0 -0 -0 -0 -0 -0 -0 -0 -0 -0 -0 -0 -0 -0 -0 -0 -0 -0 -0 -0 -0 -0 -0 -0
-0 -0 -0 -0 -0 -0 -0 -0 -0 -0 -0 -0 -0 -0 -0 -0 -0 -0 -0 -0 -0 -0 -0 -0 -0 -0 -0 -0 -0 -0 -0 -0 -0 -0 -0 -0 -0 -0 -0 -0 -0 -0 -0 -0
-0 -0 -0 -0 -0 -0 -0 -0 -0 -0 -0 -0 -0 -0 -0 -0 -0 -0 -0 -0 -0 -0 -0 -0 -0 -0 -0 -0 -0 -0 -0 -0 -0 -0 -0 -0 -0 -0 -0 -0 -0 -0 -0 -0
-0 -0 -0 -0 -0 -0 -0 -0 -0 -0 -0 -0 -0 -0 -0 -0 -0 -0 -0 -0 -0 -0 -0 -0 -0 -0 -0 -0 -0 -0 -0 -0 -0 -0 -0 -0 -0 -0 -0 -0 -0 -0 -0 -0
-0 -0 -0 -0 -0 -0 -0 -0 -0 -0 -0 -0 -0 -0 -0 -0 -0 -0 -0 -0 -0 -0 -0 -0 -0 -0 -0 -0 -0 -0 -0 -0 -0 -0 -0 -0 -0 -0 -0 -0 -0 -0 -0 -3
-0 -0 -0 -0 -0 -0 -0 -0 -0 -0 -0 -0 -0 -0 -0 -0 -0 -0 -0 -0 -0 -0 -0 -0 -0 -0 -0 -0 -0 -0 -0 -0 -0 -0 -0 -0 -0 -0 -0 -0 -0 -0 -0 -0
-0 -0 -0 -0 -0 -0 -0 -0 -0 -0 -0 -0 -0 -0 -0 -0 -0 -0 -0 -0 -0 -0 -0 -0 -0 -0 -0 -0 -0 -0 -0 -0 -0 -0 -0 -0 -0 -0 -0 -0 -0 -0 -0 -0
-0 -0 -0 -0 -0 -0 -0 -0 -0 -0 -0 -0 -0 -0 -0 -0 -0 -0 -0 -0 -0 -0 -0 -0 -0 -0 -0 -0 -0 -0 -0 -0 -0 -0 -0 -0 -0 -0 -0 -0 -0 -0 -0 -0
-0 -0 -0 -0 -0 -0 -0 -0 -0 -0 -0 -0 -0 -0 -0 -0 -0 -0 -0 -0 -0 -0 -0 -0 -0 -0 -0 -0 -0 -0 -0 -0 -0 -0 -0 -0 -0 -0 -0 -0 -0 -0 -0 -0
-0 -0 -0 -0 -0 -0 -0 -0 -0 -0 -0 -0 -0 -0 -0 -0 -0 -0 -0 -0 -0 -0 -0 -0 -0 -0 -0 -0 -0 -0 -0 -0 -0 -0 -0 -0 -0 -0 -0 -0 -0 -0 -0 -0
-0 -0 -0 -0 -0 -0 -0 -0 -0 -0 -0 -0 -0 -0 -0 -0 -0 -0 -0 -0 -0 -0 -0 -0 -0 -0 -0 -0 -0 -0 -0 -0 -0 -0 -0 -0 -0 -0 -0 -0 -0 -0 -0 -0
-0 -0 -0 -0 -0 -0 -0 -0 -0 -0 -0 -0 -0 -0 -0 -0 -0 -0 -0 -0 -0 -0 -0 -0 -0 -0 -0 -0 -0 -0 -0 -0 -0 -0 -0 -0 -0 -0 -0 -0 -0 -0 -0 -0
-0 -0 -0 -0 -0 -0 -0 -0 -0 -0 -0 -0 -0 -0 -0 -0 -0 -0 -0 -0 -0 -0 -0 -0 -0 -0 -0 -0 -0 -0 -0 -0 -0 -0 -0 -0 -0 -0 -0 -0 -0 -0 -0 -0
-0 -0 -0 -0 -0 -0 -0 -0 -0 -0 -0 -0 -0 -0 -0 -0 -0 -0 -0 -0 -0 -0 -0 -0 -0 -0 -0 -0 -0 -0 -0 -0 -0 -0 -0 -0 -0 -0 -0 -0 -0 -0 -0 -0
-0 -0 -0 -0 -0 -0 -0 -0 -0 -0 -0 -0 -0 -0 -0 -0 -0 -0 -0 -0 -0 -0 -0 -0 -0 -0 -0 -0 -0 -0 -0 -0 -0 -0 -0 -0 -0 -0 -0 -0 -0 -0 -0 -0
-0 -0 -0 -0 -0 -0 -0 -0 -0 -0 -0 -0 -0 -0 -0 -0 -0 -0 -0 -0 -0 -0 -0 -0 -0 -0 -0 -0 -0 -0 -0 -0 -0 -0 -0 -0 -0 -0 -0 -0 -0 -0 -0 -0
-0 -0 -0 -0 -0 -0 -0 -0 -0 -0 -0 -0 -0 -0 -0 -0 -0 -0 -0 -0 -0 -0 -0 -0 -0 -0 -0 -0 -0 -0 -0 -0 -0 -0 -0 -0 -0 -0 -0 -0 -0 -0 -0 -0
-0 -0 -0 -0 -0 -0 -0 -0 -0 -0 -0 -0 -0 -0 -0 -0 -0 -0 -0 -0 -0 -0 -0 -0 -0 -0 -0 -0 -0 -0 -0 -0 -0 -0 -0 -0 -0 -0 -0 -0 -0 -0 -0 -0
-0 -0 -0 -0 -0 -0 -0 -0 -0 -0 -0 -0 -0 -0 -0 -0 -0 -0 -0 -0 -0 -0 -0 -0 -0 -0 -0 -0 -0 -0 -0 -0 -0 -0 -0 -0 -0 -0 -0 -0 -0 -0 -0 -0
-0 -0 -0 -0 -0 -0 -0 -0 -0 -0 -0 -0 -0 -0 -0 -0 -0 -0 -0 -0 -0 -0 -0 -0 -0 -0 -0 -0 -0 -0 -0 -0 -0 -0 -0 -0 -0 -0 -0 -0 -0 -0 -0 -0
-0 -0 -0 -0 -0 -0 -0 -0 -0 -0 -0 -0 -0 -0 -0 -0 -0 -0 -0 -0 -0 -0 -0 -0 -0 -0 -0 -0 -0 -0 -0 -0 -0 -0 -0 -0 -0 -0 -0 -0 -0 -0 -0 -0
-0 -0 -0 -0 -0 -0 -0 -0 -0 -0 -0 -0 -0 -0 -0 -0 -0 -0 -0 -0 -0 -0 -0 -0 -0 -0 -0 -0 -0 -0 -0 -0 -0 -0 -0 -0 -0 -0 -0 -0 -0 -0 -0 -0
-0 -0 -0 -0 -0 -0 -0 -0 -0 -0 -0 -0 -0 -0 -0 -0 -0 -0 -0 -0 -0 -0 -0 -0 -0 -0 -0 -0 -0 -0 -0 -0 -0 -0 -0 -0 -0 -0 -0 -0 -0 -0 -0 -0
Wind_Speed
16 25 29 30 28 25 23 23 22 20 20 20 23 24 19 18 20 21 22 22 23 24 23 23 21 18 15 14 14 15 17 19 23 26 27 27 29 30 29 30 30 29 29 28
17 25 23 22 23 23 22 23 22 19 18 20 22 26 22 18 19 21 22 24 25 25 25 24 21 18 15 15 14 15 17 21 24 25 26 27 28 28 29 29 29 27 27 26
18 21 18 19 20 22 21 23 22 21 17 16 20 23 21 18 18 18 20 23 23 25 27 24 20 17 16 14 13 15 18 22 23 23 25 26 28 28 29 29 28 27 26 25
17 19 18 19 21 20 22 18 17 16 19 22 18 23 21 20 18 17 19 19 20 21 21 20 19 17 15 14 14 16 20 22 22 22 24 26 29 31 28 28 27 27 24 24
19 20 19 20 21 18 19 16 15 16 18 19 20 21 20 18 18 18 20 20 20 20 21 21 20 17 16 16 16 19 23 23 23 24 25 26 27 27 28 27 27 25 23 22
15 15 15 18 15 14 13 13 13 15 17 25 23 22 22 20 19 20 20 20 21 21 22 21 20 19 19 18 20 23 24 25 25 24 24 24 26 28 27 26 25 25 24 22
13 12 14 14 15 15 16 16 20 23 25 26 21 23 23 17 17 18 19 21 22 21 22 22 21 21 21 22 23 23 24 26 25 25 24 23 24 25 25 24 24 22 22 21
14 18 15 15 15 17 16 18 20 26 26 25 21 26 22 15 15 16 16 18 20 22 23 24 24 24 25 24 23 23 25 28 28 26 25 23 22 22 22 20 20 19 18 19
12 14 15 13 14 15 17 19 15 16 19 24 23 23 22 18 16 13 16 21 23 24 25 27 28 28 28 27 25 25 28 29 29 27 25 23 20 18 18 16 11 8 12 22
12 11 16 17 16 14 16 11 19 20 26 29 26 25 23 17 13 12 17 23 24 26 28 30 30 30 30 29 27 27 28 28 28 25 23 21 17 15 13 11 7 6 14 23
13 13 14 17 18 17 16 18 17 16 20 26 29 27 18 15 14 13 18 25 26 29 31 31 31 30 28 28 27 28 28 31 30 27 25 21 16 15 15 10 2 8 18 24
16 13 13 16 16 17 17 17 17 23 25 23 25 29 18 15 15 17 22 29 28 27 28 28 28 27 28 28 29 31 31 30 29 27 26 23 20 18 17 11 9 12 16 22
17 18 16 19 20 20 19 18 17 17 19 26 29 27 20 19 19 18 29 27 27 26 26 27 28 29 29 31 33 34 34 32 30 29 28 26 23 22 21 18 16 16 19 22
17 15 17 23 20 17 20 19 19 21 26 27 28 27 23 19 18 27 27 28 27 25 25 27 30 32 33 35 36 36 36 33 32 31 29 25 24 27 29 26 19 18 21 24
16 9 17 19 20 21 23 23 18 18 24 28 31 27 25 23 26 27 28 26 24 22 25 30 33 35 37 37 37 36 36 35 34 33 29 25 23 31 31 29 25 22 23 24
16 14 15 16 20 21 28 25 22 21 25 28 31 34 25 28 23 26 24 24 25 24 29 33 35 36 37 37 37 37 38 37 36 33 30 27 21 31 34 32 29 26 26 26
9 9 10 7 24 26 22 17 13 8 14 13 20 26 18 25 25 24 23 21 23 28 32 34 36 36 37 37 37 38 38 38 37 35 33 30 25 17 33 33 31 30 28 27
9 10 11 11 21 11 16 16 17 6 12 3 18 18 15 22 21 20 18 21 27 30 32 34 35 36 37 37 37 38 38 38 37 36 34 33 29 23 20 31 32 30 28 28
12 11 14 14 13 22 21 19 16 16 21 20 14 15 21 16 17 15 16 24 27 30 32 33 34 35 36 36 37 38 38 37 36 36 36 35 33 31 27 23 28 29 27 28
14 16 15 17 20 21 17 16 16 16 20 18 13 11 13 16 20 19 24 28 29 30 31 32 33 34 34 35 36 37 38 37 37 38 38 36 34 32 32 31 31 28 27 27
15 14 13 19 24 26 18 16 18 22 20 12 13 14 17 20 21 24 27 28 28 29 30 30 32 33 34 35 36 37 38 38 38 38 38 37 35 33 32 32 31 31 31 31
15 16 17 16 21 27 15 16 19 20 14 12 14 16 20 23 25 26 27 28 29 30 30 31 32 33 34 35 35 37 38 39 39 39 39 38 37 36 35 35 34 33 33 33
20 15 19 14 20 21 19 20 16 15 15 16 19 21 24 25 26 27 27 28 29 30 31 31 32 33 34 35 36 38 39 39 40 40 39 39 38 37 36 35 36 35 34 33
18 16 23 23 22 20 22 20 18 19 19 19 22 24 25 26 25 26 26 27 28 29 31 32 33 35 37 37 38 38 40 40 40 41 41 40 39 39 37 36 36 35 35 34
21 16 22 28 27 25 22 19 18 20 21 23 24 23 24 25 26 26 28 29 30 32 33 34 36 38 40 40 40 40 40 41 42 41 41 41 40 40 39 37 36 35 33 31
20 24 28 32 25 25 26 19 20 21 24 25 26 25 25 25 26 26 28 30 32 34 35 37 37 38 40 40 41 42 41 41 42 44 43 42 42 41 40 39 39 34 32 32
Wind_Direction
222 204 209 214 222 224 222 222 227 238 245 242 244 248 259 258 256 257 262 270 278 284 294 302 310 318 324 328 332 337 341 342 337 333 332 333 333 334 337 338 338 339 340 342
210 207 219 221 222 222 222 221 230 239 248 244 250 250 256 263 263 266 271 276 283 291 297 303 313 320 324 326 330 335 337 335 332 332 333 335 335 336 336 337 337 340 342 342
212 214 218 214 217 217 225 224 228 236 243 253 255 252 255 267 272 278 284 287 294 298 300 306 314 319 324 327 331 334 335 332 332 334 335 335 336 336 337 339 339 340 341 341
214 220 213 214 218 226 222 234 234 234 238 243 260 251 258 267 274 288 296 301 305 312 318 320 321 324 327 330 333 333 331 330 332 334 334 334 333 333 339 339 340 339 340 340
215 212 212 217 229 235 229 235 237 241 246 250 259 260 265 273 276 286 300 307 312 319 324 327 330 333 334 334 334 332 328 329 330 329 330 332 334 335 335 337 338 340 339 339
209 221 222 224 235 234 223 233 244 252 254 251 260 263 269 274 281 290 304 311 316 322 327 330 334 337 336 335 332 328 329 329 330 330 330 331 332 332 334 336 338 338 338 336
211 217 224 229 227 236 237 234 241 247 250 254 268 268 275 284 296 302 308 313 319 326 329 331 333 334 333 330 328 329 332 332 333 332 332 331 331 332 333 334 334 338 339 335
210 208 226 238 234 239 240 246 250 250 253 261 273 270 280 290 308 314 324 328 329 329 332 333 332 330 328 327 326 329 331 330 331 332 332 332 331 334 335 338 339 343 342 336
224 227 235 243 247 249 249 254 271 272 275 270 275 281 288 296 303 316 323 326 327 331 333 331 329 329 327 324 323 324 325 326 329 330 331 332 333 336 339 345 359 4 354 323
241 243 243 243 252 273 265 272 268 273 266 266 276 282 285 296 304 309 320 325 329 330 327 327 328 328 327 326 325 326 326 329 331 332 333 334 336 339 345 352 357 359 342 315
251 266 261 256 261 263 271 273 285 287 283 277 277 284 302 301 305 306 319 324 326 325 326 328 327 329 331 334 335 332 331 325 327 331 333 335 336 335 337 343 331 345 327 309
255 274 276 275 283 285 287 287 289 279 280 288 290 290 310 307 304 307 312 317 322 329 333 337 339 339 339 339 338 332 329 332 335 335 335 334 334 330 327 330 332 332 326 311
264 261 279 278 283 284 287 289 292 296 296 286 287 295 305 304 303 307 310 318 322 327 331 335 338 338 337 330 326 325 326 330 333 333 334 333 335 329 321 320 322 322 317 309
290 303 293 263 287 298 291 292 288 287 288 289 287 295 299 302 305 306 314 317 319 324 329 332 329 324 323 324 324 324 325 329 329 331 333 336 334 325 316 313 316 315 311 306
315 335 309 303 301 299 296 295 293 286 290 289 293 292 293 297 302 312 316 318 323 324 322 317 317 321 323 323 324 326 324 323 326 327 333 336 335 315 311 311 312 312 307 304
198 169 183 198 309 306 294 297 296 292 292 290 291 291 298 302 310 307 314 314 315 318 314 315 318 324 326 325 322 320 321 323 325 330 334 336 337 316 305 307 309 309 305 302
57 56 42 136 272 266 233 245 199 307 306 304 285 296 307 299 301 306 311 319 321 318 318 319 321 322 324 323 322 322 322 324 327 329 331 334 338 337 307 305 308 306 305 304
17 15 4 357 328 345 338 336 331 353 333 296 310 313 311 305 311 313 322 324 319 319 319 320 322 323 325 325 326 325 324 325 328 330 331 331 334 338 335 313 309 310 309 307
345 344 338 337 337 319 324 326 326 324 317 318 316 311 308 317 320 324 332 326 324 323 323 325 326 326 327 328 328 328 328 330 330 330 329 328 327 326 329 330 319 316 316 310
344 332 327 326 320 320 332 336 337 333 319 328 337 335 326 323 312 315 318 321 322 323 326 327 328 330 331 331 332 331 331 331 331 329 326 326 327 325 322 322 320 321 318 315
338 335 322 317 315 315 320 327 328 316 319 328 329 326 323 318 318 319 319 320 322 325 328 330 330 331 332 333 335 333 332 331 329 328 326 325 325 325 324 321 321 319 317 315
324 325 325 324 317 315 334 333 320 325 334 332 327 323 319 319 318 319 320 322 323 324 327 329 330 330 332 333 333 332 332 331 328 325 325 324 324 323 322 320 319 318 317 315
316 318 320 314 319 322 327 324 329 330 327 326 323 321 320 318 318 319 319 321 322 324 325 327 329 328 329 331 331 328 328 330 330 328 326 326 325 325 324 322 320 319 319 317
314 313 310 314 317 307 310 315 320 322 320 320 320 319 319 318 320 321 322 323 324 326 326 328 327 326 326 329 330 329 327 327 327 327 327 326 325 325 325 324 322 320 319 318
313 316 310 305 308 311 314 314 313 317 319 318 319 319 319 319 319 319 319 320 321 321 323 324 323 323 323 326 327 328 328 327 325 325 326 327 326 325 324 324 323 322 322 320
304 303 300 302 310 308 311 311 313 313 314 315 315 317 319 320 319 320 319 320 321 320 321 321 323 323 323 324 325 325 328 328 326 323 324 325 325 325 324 323 322 324 321 321